Theta_e
312 313 314 314 314 314 313 312 313 313 313 312 313 314 313 312 312 313 313 314 313 313 313 310 310 310 309 309 308 308 308 308 309 310 311 312 312 311 311 311 308 307 306 304
312 313 314 313 311 310 312 313 314 314 312 310 313 313 312 313 313 313 313 314 313 313 313 311 309 309 309 308 308 307 306 306 307 308 309 309 309 309 309 309 307 306 304 302
315 316 311 311 312 312 313 312 314 314 312 311 311 315 314 314 312 312 313 312 311 310 310 310 310 309 308 307 307 306 305 305 304 305 306 306 307 305 306 306 305 304 303 301
312 311 310 310 311 312 314 313 312 311 312 314 311 317 317 317 316 314 314 311 310 310 309 309 309 307 305 304 304 304 304 303 303 303 304 305 305 304 304 304 303 302 301 301
314 310 310 312 312 311 312 309 310 310 312 312 314 314 318 312 314 313 311 310 310 309 307 307 306 304 303 302 301 301 301 302 302 301 302 303 303 303 304 303 302 300 299 299
310 306 309 311 309 309 308 310 311 310 311 317 318 316 317 315 314 313 311 309 307 306 304 302 301 300 299 298 298 298 298 298 299 300 301 301 302 302 302 302 301 300 299 297
313 313 309 307 310 308 309 311 319 325 321 323 311 314 315 314 312 309 308 306 304 303 301 300 299 298 297 296 296 296 296 296 296 297 298 299 300 300 301 301 300 300 299 297
325 323 309 308 312 318 311 313 325 329 326 326 317 318 317 313 308 307 307 306 304 303 302 300 299 297 296 295 295 294 295 294 293 295 295 296 297 298 298 299 299 299 299 298
322 321 310 306 308 311 312 315 316 321 320 319 318 317 314 311 310 309 307 305 303 301 299 298 298 297 296 295 294 293 293 293 292 292 294 295 295 295 296 297 297 297 297 297
316 320 316 312 306 307 309 310 313 312 321 321 317 317 317 312 312 309 307 303 300 298 296 296 295 295 295 294 294 294 293 293 292 291 292 293 293 293 294 294 295 295 296 296
312 314 317 314 311 314 309 310 312 315 318 321 321 317 313 311 307 305 303 299 297 296 295 294 293 293 293 293 293 293 292 292 291 291 291 292 292 292 292 292 293 294 294 294
316 316 318 317 314 314 315 316 316 318 318 316 317 317 312 306 302 300 298 296 295 294 293 292 292 292 292 292 291 291 291 291 290 289 289 290 291 290 290 291 291 291 292 292
315 317 319 317 312 312 314 312 311 310 310 316 318 316 312 308 304 297 296 294 293 292 290 290 291 291 291 291 290 290 290 289 289 288 288 289 289 289 288 288 289 290 291 290
311 312 316 316 313 312 311 311 308 306 309 311 310 308 305 303 300 294 292 291 293 292 289 289 289 290 290 289 288 288 288 288 287 286 287 287 288 287 286 286 287 288 290 290
307 310 310 310 309 306 305 305 304 304 305 305 303 302 301 298 295 293 292 290 290 292 289 289 289 289 289 288 287 287 287 286 286 285 286 286 287 286 284 284 284 286 288 289
299 305 301 301 301 301 302 300 300 300 298 298 298 297 296 295 294 292 291 289 289 291 289 288 288 288 288 287 287 286 286 285 285 284 285 285 287 284 281 283 284 284 286 287
298 301 299 302 300 296 297 296 297 297 296 296 295 296 294 290 290 290 290 290 289 290 289 288 288 288 287 287 286 286 285 284 284 283 283 283 285 281 280 281 283 284 284 285
296 297 297 297 291 295 296 294 296 297 296 295 295 293 291 290 289 290 290 291 290 290 289 289 288 287 286 286 286 285 284 283 283 283 282 282 283 280 279 280 282 283 283 284
294 294 294 293 295 293 292 293 293 292 292 294 294 291 290 289 289 290 290 290 289 289 289 288 287 286 285 285 284 283 283 282 282 282 281 281 281 278 278 279 280 279 281 282
291 293 294 286 292 292 293 290 290 289 291 289 290 290 289 289 289 289 289 289 289 288 288 287 286 284 284 283 282 281 281 281 281 281 280 279 278 277 277 277 277 277 279 280
290 291 293 294 293 293 292 291 288 290 291 291 291 289 289 290 290 290 289 289 288 288 287 285 285 284 283 282 281 280 280 279 279 279 278 277 276 275 275 274 275 275 276 277
290 290 290 285 289 291 287 289 289 291 291 291 289 290 290 289 289 288 288 288 288 287 285 283 282 282 281 280 279 278 278 278 277 276 275 275 274 273 273 272 272 273 274 276
289 290 290 288 290 289 288 290 290 291 291 290 290 290 289 288 288 287 287 286 284 283 282 281 280 279 278 277 276 276 276 275 274 273 272 271 271 271 270 270 271 272 273 275
290 290 289 290 290 290 290 290 290 290 290 290 290 288 286 285 284 283 282 281 281 279 278 276 275 275 274 273 272 272 271 270 270 269 269 269 269 269 269 269 269 270 272 274
290 289 289 290 290 290 290 290 290 290 290 286 283 282 281 281 280 279 278 277 276 275 273 272 271 271 270 269 268 267 266 265 265 265 265 265 266 266 266 267 267 269 270 272
290 290 290 290 289 289 289 290 288 287 285 280 279 279 278 276 276 275 274 273 271 271 269 268 268 267 266 265 264 264 263 263 263 263 263 263 263 264 264 265 265 266 268 270
Wind_Speed
3 8 12 19 20 21 14 17 21 19 16 16 23 24 19 22 23 27 23 20 15 13 12 11 12 11 10 8 9 12 16 18 21 22 24 27 30 27 29 31 32 32 38 38
4 12 16 11 8 10 16 22 22 20 14 6 19 26 24 24 21 21 19 15 12 12 9 10 11 10 8 8 7 7 11 13 17 19 21 23 18 26 28 28 28 29 31 35
18 11 1 12 14 14 18 15 19 22 16 14 13 15 4 8 8 11 11 8 7 8 9 12 14 20 23 24 21 15 11 10 14 17 18 19 21 18 22 28 30 34 35 38
10 5 7 3 8 15 19 15 16 15 8 8 7 10 13 16 16 9 10 14 14 14 12 13 17 22 22 23 21 19 15 10 10 11 16 19 21 23 23 22 25 27 31 36
4 3 3 7 10 8 7 4 5 4 8 9 5 6 4 4 4 7 14 13 16 16 17 19 19 21 24 26 25 22 18 13 8 7 14 17 21 22 20 19 20 26 26 34
13 1 4 4 4 6 1 3 6 2 3 9 12 9 2 1 5 4 10 15 22 21 20 19 25 26 29 30 29 28 27 27 22 11 10 16 20 19 20 18 18 18 22 25
8 6 3 3 5 3 5 7 5 6 5 8 6 2 7 9 5 14 17 16 15 15 17 19 21 27 30 31 31 30 33 32 29 21 14 14 15 17 20 22 20 20 20 22
3 7 6 6 7 10 7 6 4 6 8 15 5 8 6 2 16 17 17 17 19 20 18 19 19 22 26 29 29 28 28 27 28 26 22 17 16 16 19 19 21 22 24 25
5 9 2 6 3 5 6 8 12 9 9 7 10 15 10 9 11 12 13 13 16 16 16 16 21 24 26 28 30 30 29 29 29 26 25 23 18 17 21 22 20 22 25 25
2 10 7 2 1 3 4 1 3 3 4 10 15 11 9 10 3 7 10 12 13 14 15 15 18 22 24 24 24 24 24 25 26 26 26 24 25 23 19 20 22 24 24 25
4 5 14 0 8 11 3 4 2 2 4 6 7 7 5 8 5 6 6 9 11 13 14 15 18 22 22 23 24 25 25 24 25 27 26 26 26 25 24 21 21 23 25 28
5 3 6 13 17 16 14 17 16 11 10 9 10 15 2 11 9 6 5 6 7 8 10 11 14 17 19 19 21 22 23 25 25 24 24 23 22 25 25 25 25 23 24 27
3 3 5 6 4 3 3 4 5 4 3 15 16 15 3 11 8 5 3 4 4 4 8 10 12 14 16 18 20 21 22 22 24 25 24 24 24 25 25 26 27 25 22 25
2 3 8 12 17 8 9 13 5 2 4 7 9 12 19 22 9 4 3 5 4 5 8 9 10 12 14 17 19 20 21 21 23 26 25 25 26 25 26 26 26 28 28 22
2 10 13 16 17 11 11 10 14 16 14 8 15 22 25 10 9 5 6 8 8 5 7 10 11 10 13 15 18 19 22 23 23 23 23 25 25 27 31 31 28 30 30 27
0 3 2 6 8 13 16 18 22 21 22 24 26 27 5 4 9 13 13 14 13 8 10 11 11 14 14 14 16 17 19 21 22 23 23 25 22 27 32 32 31 28 27 26
3 4 4 15 14 11 11 19 20 21 23 19 17 6 2 3 9 14 17 15 16 14 13 15 15 16 17 18 17 18 20 21 22 24 27 25 21 25 27 28 27 29 30 27
12 9 6 8 3 14 9 4 7 9 1 5 5 5 2 5 12 15 14 15 19 17 15 16 18 20 20 20 20 20 19 20 20 21 22 25 25 32 32 29 26 26 27 26
17 12 6 5 10 12 17 7 5 5 5 10 7 7 4 11 14 17 14 14 18 18 18 19 20 21 25 25 23 20 23 23 23 22 21 22 21 27 30 32 32 33 31 30
6 12 8 4 6 8 4 4 4 4 9 9 7 7 12 10 12 14 17 16 16 24 23 21 23 25 24 26 24 24 24 23 24 24 25 25 23 25 27 30 32 33 31 33
3 4 14 12 9 8 5 4 5 6 5 7 8 12 14 14 13 18 18 17 23 23 22 23 25 26 27 27 25 27 28 28 26 25 25 27 29 30 29 31 33 34 34 33
5 5 5 2 3 10 4 6 6 3 7 10 14 15 14 16 16 18 18 18 16 17 23 26 25 27 31 30 27 28 29 32 30 27 28 31 31 32 33 32 35 34 32 32
6 9 5 9 6 1 6 6 13 17 17 17 16 15 16 16 17 16 14 13 15 20 21 24 25 28 33 31 27 29 34 32 32 33 34 34 35 35 34 33 33 32 32 29
12 14 9 11 17 19 20 20 19 19 15 16 14 10 5 10 10 12 12 13 13 19 20 23 25 27 31 32 33 32 35 35 36 36 37 37 35 35 33 32 32 30 31 28
13 4 9 13 20 19 21 19 20 18 13 3 2 3 7 8 10 12 13 13 18 21 22 22 24 29 34 35 36 34 34 35 37 37 36 36 33 33 33 31 30 31 33 32
14 18 12 15 21 16 20 17 9 7 5 1 4 6 5 7 10 12 13 18 20 21 24 25 27 29 32 34 35 36 35 34 35 34 32 30 31 31 31 31 33 34 40 42
Wind_Direction
173 214 212 225 228 248 289 274 276 279 284 293 286 294 297 286 277 274 281 283 296 290 320 339 338 331 320 295 259 240 230 226 217 218 220 226 230 232 231 226 222 218 219 216
180 237 238 260 283 268 267 273 278 280 275 287 294 298 293 273 276 272 280 293 295 309 352 23 27 37 8 349 336 296 266 249 230 224 224 227 234 239 239 235 232 225 221 216
244 262 249 217 242 262 254 262 274 283 305 277 298 287 285 306 283 270 294 297 339 18 47 67 55 34 31 26 14 359 327 283 248 236 230 226 230 237 235 229 227 222 219 218
256 297 250 228 245 243 275 265 268 277 293 286 4 291 303 282 285 353 29 42 55 67 81 63 33 32 35 29 18 10 0 332 277 249 247 244 238 236 233 236 233 227 222 219
273 176 172 214 237 210 264 8 292 278 270 300 242 261 320 281 310 71 61 56 46 39 40 27 26 38 38 31 21 17 14 12 335 286 252 257 255 261 265 256 239 221 223 221
269 316 245 247 193 198 162 265 266 232 253 261 258 220 43 138 64 64 64 53 35 32 32 35 27 27 31 29 29 25 21 21 15 353 294 273 269 270 264 254 248 238 228 224
310 250 242 236 245 166 230 282 302 263 220 268 109 236 285 272 346 54 69 60 49 44 34 25 21 20 20 21 22 23 26 23 16 8 343 302 284 279 272 266 257 244 235 229
256 290 191 182 233 247 178 203 215 269 279 290 347 259 251 186 72 53 46 38 36 31 30 24 19 15 15 17 16 16 22 24 22 14 1 337 321 297 283 271 264 256 245 241
236 261 264 224 221 201 158 205 229 248 268 274 253 254 231 98 75 59 43 33 29 27 19 12 9 9 9 10 14 13 12 11 12 10 6 7 354 327 304 294 276 262 255 251
258 284 218 282 220 249 249 101 193 219 244 259 268 259 257 184 266 53 25 23 20 19 21 19 14 9 9 8 6 9 11 6 4 6 7 5 6 359 333 309 291 277 267 255
251 234 271 322 213 235 171 199 186 186 195 249 267 249 93 120 58 21 38 27 26 24 18 10 8 5 4 2 1 0 1 1 0 358 360 2 0 2 359 344 316 296 283 266
206 198 248 239 270 257 254 245 244 244 222 218 244 265 22 117 85 62 59 36 10 9 9 6 358 356 356 356 353 352 353 352 353 351 348 349 353 354 356 356 347 324 295 278
57 251 257 268 194 76 264 305 307 305 319 246 262 261 11 308 345 61 34 358 353 359 11 5 354 350 354 346 343 342 345 344 343 344 342 342 345 348 348 347 347 346 321 292
37 279 257 267 281 336 266 261 239 250 256 283 252 286 296 304 345 55 346 331 293 320 357 351 346 338 339 338 336 337 336 340 342 340 341 340 339 340 336 334 336 341 343 320
230 260 266 271 281 292 261 257 268 268 266 254 280 280 280 324 326 332 316 337 331 307 328 333 331 325 321 321 324 326 327 331 334 336 335 335 332 333 334 332 332 332 337 337
311 266 243 268 254 264 281 273 263 266 265 263 265 270 358 332 319 323 332 338 333 304 318 325 318 309 307 307 311 312 312 317 322 323 324 326 325 330 332 327 328 330 325 325
252 248 270 268 287 314 277 252 264 269 270 279 275 305 124 357 332 322 317 318 318 303 315 327 328 317 299 295 300 300 304 309 310 314 318 320 314 321 323 322 320 324 323 321
242 231 246 273 330 254 282 336 263 270 340 168 136 156 186 314 315 306 301 293 298 289 298 314 317 314 304 294 291 291 289 292 292 290 295 305 308 318 321 321 315 314 313 310
233 248 247 248 243 296 297 238 221 247 276 205 189 192 237 300 302 289 296 281 283 283 284 297 303 307 304 299 300 291 286 289 287 285 288 297 299 309 310 310 310 311 311 307
215 227 215 164 239 263 310 147 115 139 278 189 191 224 296 306 293 295 311 306 289 285 276 289 302 305 300 300 304 296 289 288 280 284 288 293 291 298 295 299 299 301 300 298
147 200 220 227 250 271 259 155 131 253 301 160 209 265 282 287 277 289 297 294 288 277 285 295 301 298 295 302 304 296 295 291 294 288 285 285 291 294 292 295 295 295 294 293
215 202 198 161 244 267 171 128 213 259 298 296 292 290 291 290 286 287 289 293 295 290 296 300 299 295 297 300 302 294 290 298 298 292 287 286 286 287 289 290 290 291 290 288
252 219 242 216 230 239 181 257 270 286 290 292 290 289 293 292 292 299 300 300 298 301 301 302 301 299 298 301 303 298 296 303 301 296 291 289 289 286 284 283 284 286 285 279
257 252 246 265 254 260 267 269 273 274 273 277 281 299 296 289 303 297 300 302 304 305 305 307 305 299 298 301 301 298 300 302 300 295 292 293 291 289 286 282 280 278 276 275
246 226 244 262 266 272 266 266 262 272 277 274 321 315 313 312 307 306 305 305 307 308 308 306 302 296 295 300 300 303 303 301 296 294 295 294 292 290 287 281 277 276 272 271
243 245 252 257 265 258 269 277 292 256 231 305 318 309 311 314 307 311 304 308 310 310 310 302 299 297 296 298 299 300 297 296 295 294 295 293 292 290 286 284 283 276 275 275